User: anonymous   Login
Location: Unspecified
(0.0000°N, 0.0000°E)
Time: 00:47:48
(UTC+00:00)
Language:

ONEWEB-0038 - Orbit

View from above orbital plane
View from above orbital plane
View from above satellite
View from above satellite

Ground track
Ground track

The orbit is defined by the following mean orbital elements,

1 45145U          26145.12724863 +.00000000 +00000-0 +11086-2 0 00001
2 45145  87.8923  25.6620 0002188  32.6163 327.5100 13.11414097    08
Epoch (UTC): 25 May 2026 03:03:14
Eccentricity: 0.0002188
inclination: 87.8923°
perigee height: 1216 km
apogee height: 1219 km
right ascension of ascending node: 25.6620°
argument of perigee: 32.6163°
revolutions per day: 13.11414097
mean anomaly at epoch: 327.5100°

The dashed part of the orbit path shows where the satellite is in the earth's shadow,  

DLR